User: anonymous   Login
Location: Newsoms
(36.6240°N, 77.1250°W)
Time: 07:20:32
(UTC-05:00)
Language:

BREEZE-M DEB (TANK) - Orbit

View from above orbital plane
View from above orbital plane
View from above satellite
View from above satellite

Ground track
Ground track

The orbit data is extracted from the following two-line orbital elements,

1 29649U 06056B   17057.07327240  .00002218  00000-0  47421-3 0  9996
2 29649  49.4915 314.9138 5376721  92.0299 327.2781  4.99260807182225
Epoch (UTC): 26 February 2017 01:45:30
Eccentricity: 0.5376721
inclination: 49.4915°
perigee height: 307 km
apogee height: 15857 km
right ascension of ascending node: 314.9138°
argument of perigee: 92.0299°
revolutions per day: 4.99260807
mean anomaly at epoch: 327.2781°
orbit number at epoch: 18222

The dashed part of the orbit path shows where the satellite is in the earth's shadow,  

DLR